Regional Weather Roundup
Issued by NWS Albany, NY

Home | Current Version | Previous Version | Text Only | Print | Product List | Glossary On
Versions: 1 2 3 4 5 6 7 8 9 10 11 12 13 14 15 16 17 18 19 20 21 22 23 24 25 26 27
000
ASUS41 KALY 050510
RWRALY

NEW YORK STATE HOURLY WEATHER ROUNDUP
NATIONAL WEATHER SERVICE ALBANY NY
1200 AM EST MON DEC 05 2016

NOTE: "FAIR" INDICATES FEW OR NO CLOUDS BELOW 12,000 FEET WITH NO
SIGNIFICANT WEATHER AND/OR NO OBSTRUCTIONS TO VISIBILITY.

NYZ032-033-038>043-046>054-057>066-NYZ062>081-082-084-050600-
EAST


CITY           SKY/WX    TMP DP  RH WIND       PRES   REMARKS
ALBANY         CLOUDY    26  21  81 CALM      30.13F
GLENS FALLS    CLOUDY    24  19  81 CALM      30.13F
POUGHKEEPSIE   MOCLDY    30  22  72 CALM      30.12F
NEWBURGH       MOCLDY    32  25  74 CALM      30.12F
MONTGOMERY     MOCLDY    32  22  66 NE6       30.10F WCI  26
WHITE PLAINS   CLOUDY    34  21  59 E6        30.10F WCI  29
ISLIP          CLOUDY    37  26  64 E5        30.13F WCI  33
NEW YORK CITY  CLOUDY    41  24  51 E8        30.13F
CENTRAL PARK   CLOUDY    40  24  53 E8        30.14F WCI  34
$$

NYZ005>009-017-018-044>046-055-056-050600-
CENTRAL


CITY           SKY/WX    TMP DP  RH WIND       PRES   REMARKS
FULTON         CLOUDY    31  23  72 VRB5      29.97F WCI  26
SYRACUSE       CLOUDY    30  23  75 E9        29.98F WCI  22
ROME           CLOUDY    29  23  78 E8        30.04F WCI  21
ELMIRA         CLOUDY    37  23  56 CALM      29.92F
BINGHAMTON     CLOUDY    31  23  72 SE10      29.93F WCI  22
MONTICELLO     CLOUDY    28  21  74 E7        30.05F WCI  21
$$

NYZ026>034-041>043-087-050600-
NORTH


CITY           SKY/WX    TMP DP  RH WIND       PRES   REMARKS
WATERTOWN      CLOUDY    27  22  81 E7        30.00F WCI  19
FORT DRUM      NOT AVBL
OGDENSBURG     FAIR      25  24  96 E5        30.06F WCI  19
MASSENA        PTCLDY    22  17  81 E3        30.10F
SARANAC LAKE   CLOUDY    10   6  84 CALM      30.00F
PLATTSBURGH    PTCLDY    23  19  85 CALM      30.12F
$$

NYZ001>004-010>016-019>021-085-050600-
WEST


CITY           SKY/WX    TMP DP  RH WIND       PRES   REMARKS
NIAGARA FALLS  CLOUDY    36  27  69 E12       29.85F WCI  28
BUFFALO        CLOUDY    36  26  67 E10       29.84F WCI  28
DUNKIRK        LGT RAIN  36  32  85 SE12      29.82F WCI  28
JAMESTOWN      CLOUDY    30  28  93 S8        29.79F WCI  23
WELLSVILLE     LGT SNOW  33  27  78 S12       29.86R VSB 3/4 WCI  24
ROCHESTER      CLOUDY    36  27  69 E9        29.93F WCI  29
PENN YAN       CLOUDY    36  24  62 S8        29.95S WCI  30
$$

             KEY
       WCI = WIND CHILL INDEX
       VSB = VISIBILITY
       HX  = HEAT INDEX
$$




USA.gov is the U.S. government's official web portal to all federal, state and local government web resources and services.